Location: Newark
(60.6561°N, 46.5772°E)
Time: 04:05:15
(UTC+00:00)

ISS - Visible Passes

Search period start: 19 September 2019 00:00
Search period end: 29 September 2019 00:00
Orbit: 411 x 421 km, 51.6° (Epoch: 19 September)

Date Brightness Start Highest point End Pass type
(mag) Time Alt. Az. Time Alt. Az. Time Alt. Az.
23 Sep -1.4 17:06:54 10° SSW 17:07:38 13° SSW 17:07:38 13° SSW visible
24 Sep -1.7 16:18:58 10° SSW 16:20:41 14° SSE 16:21:08 13° SSE visible
25 Sep -1.4 15:31:20 10° S 15:32:26 11° SSE 15:33:33 10° SE visible
25 Sep -1.7 17:05:57 10° SW 17:07:27 16° SSW 17:07:27 16° SSW visible
26 Sep -1.9 16:17:45 10° SSW 16:19:58 17° S 16:20:48 15° SSE visible
27 Sep -1.7 15:29:40 10° SSW 15:31:40 15° SSE 15:33:40 10° SE visible
27 Sep -1.7 17:05:17 10° SW 17:06:59 17° SSW 17:06:59 17° SSW visible
28 Sep -1.9 16:16:54 10° SW 16:19:14 18° S 16:20:16 16° SSE visible
